Chicago Executive, IL

11:27 AM CST on December 12, 2019 (GMT -0600)
Chicago Executive

Weather History for KPWK - September, 2019

Change the Weather History Date:

Thursday, September 26, 2019

  Actual Average Record
Temperature  
Mean Temperature 66 °F 60 °F  
Max Temperature 73 °F 70 °F 93 °F (2017)
Min Temperature 57 °F 50 °F 37 °F (2000)
Degree Days  
Heating Degree Days 0 6  
Month to date heating degree days 2 72  
Since 1 July heating degree days 2 82  
Cooling Degree Days 0 1  
Month to date cooling degree days 165 75  
Year to date cooling degree days 972 772  
Growing Degree Days 16 (Base 50)    
Moisture  
Dew Point 45 °F    
Average Humidity 49    
Maximum Humidity 67    
Minimum Humidity 30    
Precipitation  
Precipitation 0.00 in 0.11 in 0.80 in (2011)
Month to date precipitation 5.50 2.71  
Year to date precipitation 34.82 25.19  
Sea Level Pressure  
Sea Level Pressure 29.92 in    
Wind  
Wind Speed 8 mph ()    
Max Wind Speed 20 mph    
Max Gust Speed 27 mph    
Visibility 10.0 miles    
Events      
T = Trace of Precipitation, MM = Missing Value Source: Averaged Metar Reports

Daily Weather History Graph

Daily Weather History Graph

Search for Another Location

Airport or City:

Astronomy

Sep. 26, 2019 Rise Set
Actual Time 6:43 AM CDT 6:42 PM CDT
Civil Twilight 6:15 AM CDT 7:10 PM CDT
Nautical Twilight 5:42 AM CDT 7:42 PM CDT
Astronomical Twilight 5:09 AM CDT 8:15 PM CDT
Moon 3:44 AM CDT (9/26) 5:58 PM CDT (9/26)
Length of Visible Light 12h 54m
Length of Day
11h 59m
Waning Crescent, 6% of the Moon is Illuminated
Sep 26
Waning Crescent
Sep 28
New
Oct 5
First Quarter
Oct 13
Full
Oct 21
Last Quarter

Hourly Weather History & Observations

Time (CDT) Temp. Dew Point Humidity Pressure Visibility Wind Dir Wind Speed Gust Speed Precip Events Conditions
12:52 AM 66.0 °F 51.1 °F 59% 29.86 in 10.0 mi WNW 11.5 mph 19.6 mph 0.00 in   Clear
1:52 AM 64.9 °F 50.0 °F 58% 29.84 in 10.0 mi WNW 9.2 mph - N/A   Clear
2:52 AM 64.0 °F 48.0 °F 56% 29.85 in 10.0 mi WNW 8.1 mph - N/A   Clear
3:52 AM 63.0 °F 46.0 °F 54% 29.86 in 10.0 mi WNW 9.2 mph - N/A   Clear
4:52 AM 60.1 °F 45.0 °F 57% 29.90 in 10.0 mi WNW 9.2 mph - N/A   Clear
5:52 AM 57.9 °F 45.0 °F 62% 29.92 in 10.0 mi WNW 6.9 mph - N/A   Clear
6:52 AM 57.0 °F 46.0 °F 67% 29.93 in 10.0 mi WNW 9.2 mph - N/A   Clear
7:52 AM 59.0 °F 46.9 °F 64% 29.95 in 10.0 mi WNW 10.4 mph - N/A   Clear
8:52 AM 62.1 °F 46.9 °F 58% 29.96 in 10.0 mi WNW 9.2 mph - N/A   Clear
9:52 AM 66.0 °F 44.1 °F 45% 29.97 in 10.0 mi NW 11.5 mph - N/A   Clear
10:52 AM 68.0 °F 41.0 °F 37% 29.97 in 10.0 mi NW 15.0 mph 23.0 mph N/A   Clear
11:52 AM 69.1 °F 39.9 °F 35% 29.99 in 10.0 mi WNW 15.0 mph 24.2 mph N/A   Clear
12:52 PM 71.1 °F 39.9 °F 32% 29.98 in 10.0 mi WNW 15.0 mph 25.3 mph N/A   Clear
1:52 PM 72.0 °F 41.0 °F 33% 29.96 in 10.0 mi WNW 9.2 mph 21.9 mph N/A   Clear
2:52 PM 73.0 °F 41.0 °F 31% 29.94 in 10.0 mi WNW 12.7 mph 19.6 mph N/A   Clear
3:52 PM 73.0 °F 41.0 °F 31% 29.93 in 10.0 mi West 10.4 mph - N/A   Clear
4:52 PM 73.0 °F 39.9 °F 30% 29.92 in 10.0 mi West 10.4 mph - N/A   Clear
5:52 PM 71.1 °F 39.9 °F 32% 29.92 in 10.0 mi West 9.2 mph - N/A   Clear
6:52 PM 69.1 °F 42.1 °F 38% 29.94 in 10.0 mi SW 4.6 mph - N/A   Clear
7:52 PM 62.1 °F 46.9 °F 58% 29.92 in 10.0 mi East 3.5 mph - N/A   Clear
8:52 PM 60.1 °F 48.0 °F 64% 29.94 in 10.0 mi Calm Calm - N/A   Clear
9:52 PM 60.1 °F 48.9 °F 67% 29.91 in 10.0 mi SSE 5.8 mph - N/A   Clear
10:52 PM 61.0 °F 46.9 °F 60% 29.91 in 10.0 mi South 8.1 mph - N/A   Clear
11:52 PM 62.1 °F 45.0 °F 53% 29.91 in 10.0 mi South 6.9 mph - N/A   Scattered Clouds